EW2142 Weather Reports


Display with metric or nautical units.
time (UTC)temp
F
wind
direction
speed
MPH
gust
MPH
rain 1hr
in
rain 24hr
in
rain mn
in
humidity
%
barometer
mb
20260905232503 48 0 0.0 0.0 0.00 0.13 0.00 1 1010.5
20260905232003 48 0 0.0 0.0 0.00 0.13 0.00 1 1010.4
20260905231503 48 0 0.0 0.0 0.00 0.13 0.00 1 1010.4
20260905231003 48 0 0.0 0.0 0.00 0.13 0.00 1 1010.3
20260905230503 48 0 0.0 0.0 0.00 0.13 0.00 1 1010.3
20260905230003 48 0 0.0 0.0 0.00 0.13 0.00 1 1010.2
20260905225503 48 0 0.0 0.0 0.00 0.13 0.00 1 1010.1
20260905225002 48 0 0.0 0.0 0.00 0.13 0.00 1 1010.0
20260905224503 48 0 0.0 0.0 0.00 0.13 0.00 1 1010.0
20260905224003 48 0 0.0 0.0 0.00 0.13 0.00 1 1009.9
20260905223503 48 0 0.0 0.0 0.00 0.13 0.00 1 1009.8
20260905223003 48 0 0.0 0.0 0.00 0.13 0.00 1 1009.9
20260905222503 49 0 0.0 0.0 0.00 0.13 0.00 1 1009.8
20260905222024 49 0 0.0 0.0 0.00 0.13 0.00 1 1009.7
20260905221503 49 0 0.0 0.0 0.00 0.13 0.00 1 1009.7
20260905221003 49 0 0.0 0.0 0.00 0.13 0.00 1 1009.7
20260905220503 49 0 0.0 0.0 0.00 0.13 0.00 1 1009.6
20260905220026 49 0 0.0 0.0 0.00 0.13 0.00 1 1009.6
20260905215503 49 0 0.0 0.0 0.00 0.13 0.13 1 1009.4
20260905215003 49 0 0.0 0.0 0.00 0.13 0.13 1 1009.4
20260905214524 50 0 0.0 0.0 0.00 0.13 0.13 1 1009.2
20260905214003 50 0 0.0 0.0 0.00 0.13 0.13 1 1009.2
20260905213503 50 0 0.0 0.0 0.00 0.13 0.13 1 1009.1
20260905213024 50 0 0.0 0.0 0.00 0.13 0.13 1 1009.0
20260905212503 50 0 0.0 0.0 0.00 0.13 0.13 1 1008.9
20260905212003 50 0 0.0 0.0 0.00 0.13 0.13 1 1008.8
20260905211503 51 0 0.0 0.0 0.00 0.13 0.13 1 1008.7
20260905211003 51 0 0.0 0.0 0.00 0.13 0.13 1 1008.8
20260905210524 51 0 0.0 0.0 0.00 0.14 0.13 1 1008.6
20260905210003 51 0 0.0 0.0 0.00 0.14 0.13 1 1008.5
20260905205524 51 0 0.0 0.0 0.00 0.14 0.13 1 1008.4
20260905205003 52 0 0.0 0.0 0.00 0.14 0.13 1 1008.3
20260905204503 52 0 0.0 0.0 0.00 0.14 0.13 1 1008.3
20260905204024 52 0 0.0 0.0 0.00 0.14 0.13 1 1008.1
20260905203503 52 0 0.0 0.0 0.00 0.14 0.13 1 1008.1
20260905203003 52 0 0.0 0.0 0.00 0.15 0.13 1 1007.9
20260905202503 53 0 0.0 0.0 0.00 0.15 0.13 1 1007.9
20260905202003 53 0 0.0 0.0 0.00 0.15 0.13 1 1007.8
20260905201503 53 0 0.0 0.0 0.00 0.16 0.13 1 1007.7
20260905201003 53 352 0.0 1.0 0.00 0.16 0.13 1 1007.6
20260905200524 53 352 0.0 1.0 0.00 0.16 0.13 1 1007.5
20260905200004 53 0 0.0 0.0 0.00 0.17 0.13 1 1007.5
20260905195503 53 0 0.0 0.0 0.00 0.17 0.13 1 1007.4
20260905195024 53 0 0.0 0.0 0.00 0.17 0.13 1 1007.2
20260905194503 54 0 0.0 0.0 0.00 0.17 0.13 1 1007.1
20260905194024 54 0 0.0 0.0 0.00 0.17 0.13 1 1007.1
20260905193503 54 0 0.0 0.0 0.00 0.17 0.13 1 1007.0
20260905193002 54 0 0.0 0.0 0.00 0.17 0.13 1 1007.0
20260905192503 54 347 0.0 1.0 0.00 0.17 0.13 1 1006.8
20260905192024 55 348 0.0 1.0 0.00 0.17 0.13 1 1006.7
20260905191503 55 349 0.0 1.0 0.00 0.17 0.13 1 1006.6
20260905191003 55 0 0.0 1.0 0.00 0.17 0.13 1 1006.5
20260905190524 55 281 0.0 1.0 0.00 0.17 0.13 1 1006.4
20260905190003 55 276 0.0 1.0 0.00 0.17 0.13 1 1006.3
20260905185502 55 122 0.0 1.0 0.00 0.17 0.13 3 1006.3
20260905185024 55 0 0.0 0.0 0.00 0.17 0.13 3 1006.2
20260905184502 55 0 0.0 0.0 0.00 0.17 0.13 3 1006.0
20260905184002 56 0 0.0 0.0 0.00 0.17 0.13 4 1005.9
20260905183503 56 0 0.0 0.0 0.00 0.17 0.13 7 1005.8
20260905183003 56 0 0.0 0.0 0.00 0.17 0.13 9 1005.6
20260905182524 57 0 0.0 0.0 0.00 0.17 0.13 12 1005.4
20260905182003 57 0 0.0 0.0 0.00 0.17 0.13 17 1005.2
20260905181503 58 0 0.0 0.0 0.00 0.17 0.13 20 1005.2
20260905181003 58 0 0.0 0.0 0.00 0.17 0.13 24 1005.0
20260905180503 59 325 0.0 2.0 0.00 0.17 0.13 27 1004.9
20260905180003 59 325 0.0 2.0 0.00 0.17 0.13 31 1004.8
20260905175503 59 293 0.0 1.0 0.00 0.17 0.13 35 1004.6
20260905175003 60 294 0.0 1.0 0.00 0.17 0.13 36 1004.6
20260905174524 60 293 0.0 1.0 0.00 0.17 0.13 39 1004.4
20260905174003 60 303 0.0 4.0 0.00 0.17 0.13 40 1004.3
20260905173503 61 302 0.0 5.0 0.00 0.17 0.13 42 1004.1
20260905173003 61 303 0.0 5.0 0.00 0.17 0.13 39 1004.1
20260905172503 61 299 0.0 5.0 0.00 0.17 0.13 36 1004.0
20260905172003 61 300 0.0 5.0 0.00 0.17 0.13 38 1003.9
20260905171524 61 305 0.0 3.0 0.00 0.17 0.13 36 1003.8
20260905171003 61 308 0.0 3.0 0.00 0.17 0.13 29 1003.7
20260905170503 61 306 0.0 3.0 0.00 0.17 0.13 29 1003.7
20260905170003 61 313 0.0 3.0 0.00 0.17 0.13 25 1003.7
20260905165503 60 332 0.0 3.0 0.00 0.17 0.13 22 1003.5
20260905165023 60 304 0.0 5.0 0.00 0.17 0.13 21 1003.5
20260905164503 60 305 0.0 5.0 0.00 0.17 0.13 21 1003.3
20260905164024 61 307 1.0 9.0 0.00 0.17 0.13 22 1003.4
20260905163524 61 311 1.0 9.0 0.00 0.17 0.13 21 1003.4
20260905163003 61 310 1.0 5.0 0.00 0.17 0.13 23 1003.4
20260905162524 61 310 0.0 4.0 0.00 0.17 0.13 23 1003.4
20260905162003 61 306 1.0 8.0 0.00 0.17 0.13 25 1003.3
20260905161503 61 308 1.0 9.0 0.00 0.17 0.13 27 1003.3
20260905161003 61 313 1.0 9.0 0.00 0.17 0.13 22 1003.2
20260905160503 61 315 1.0 8.0 0.00 0.17 0.13 21 1003.1
20260905160003 61 312 1.0 7.0 0.00 0.17 0.13 12 1003.0
20260905155503 60 313 1.0 9.0 0.00 0.17 0.13 12 1003.0
20260905155023 60 322 1.0 9.0 0.00 0.17 0.13 14 1003.0
20260905154503 60 338 0.0 4.0 0.00 0.17 0.13 7 1003.0
20260905154002 60 309 1.0 6.0 0.00 0.17 0.13 12 1002.9
20260905153523 60 308 1.0 6.0 0.00 0.17 0.13 16 1002.9
20260905153003 60 306 1.0 7.0 0.00 0.17 0.13 17 1002.8
20260905152524 60 307 1.0 12.0 0.00 0.17 0.13 21 1002.7
20260905152003 60 319 1.0 12.0 0.00 0.17 0.13 19 1002.6
20260905151503 60 311 1.0 11.0 0.00 0.17 0.13 1 1002.5
20260905151003 59 297 0.0 4.0 0.00 0.17 0.13 1 1002.5
20260905150503 59 316 0.0 6.0 0.00 0.17 0.13 1 1002.5
20260905150024 59 306 1.0 6.0 0.00 0.17 0.13 1 1002.5
20260905145503 58 280 1.0 5.0 0.00 0.17 0.13 1 1002.5
20260905145003 58 324 0.0 4.0 0.04 0.17 0.13 1 1002.6
20260905144524 59 310 1.0 9.0 0.06 0.17 0.13 1 1002.5
20260905144024 59 304 1.0 9.0 0.07 0.17 0.13 1 1002.5
20260905143524 59 305 1.0 9.0 0.07 0.17 0.13 1 1002.5
20260905143003 59 309 1.0 9.0 0.07 0.17 0.13 1 1002.4
20260905142502 58 303 0.0 6.0 0.07 0.17 0.13 1 1002.5
20260905142003 58 312 0.0 6.0 0.07 0.17 0.13 1 1002.4
20260905141503 57 322 0.0 6.0 0.07 0.17 0.13 1 1002.4
20260905141003 57 310 1.0 6.0 0.07 0.17 0.13 1 1002.5
20260905140503 58 301 1.0 6.0 0.07 0.17 0.13 1 1002.5
20260905140004 58 294 1.0 7.0 0.07 0.17 0.13 1 1002.4
20260905135503 60 289 1.0 7.0 0.07 0.17 0.13 17 1002.3
20260905135002 62 277 1.0 9.0 0.03 0.13 0.09 32 1002.5
20260905134502 63 290 2.0 9.0 0.01 0.10 0.06 43 1002.3
20260905134003 63 264 2.0 10.0 0.00 0.09 0.06 53 1002.3
20260905133503 63 278 2.0 10.0 0.00 0.09 0.06 54 1002.2
20260905133003 62 311 2.0 17.0 0.00 0.09 0.06 56 1002.3
20260905132503 62 308 1.0 17.0 0.00 0.09 0.06 52 1002.2
20260905132003 62 268 1.0 7.0 0.00 0.09 0.06 53 1002.1
20260905131503 62 294 2.0 9.0 0.00 0.09 0.06 50 1002.2
20260905131024 62 293 2.0 10.0 0.00 0.09 0.06 48 1002.2
20260905130503 61 302 2.0 13.0 0.00 0.09 0.06 40 1002.0
20260905130003 61 313 2.0 13.0 0.00 0.09 0.06 47 1002.1
20260905125503 62 315 2.0 12.0 0.00 0.09 0.06 49 1002.0
20260905125003 62 313 2.0 12.0 0.00 0.09 0.06 50 1002.2
20260905124502 62 304 2.0 10.0 0.00 0.09 0.06 53 1002.0
20260905124003 63 296 2.0 11.0 0.00 0.09 0.06 52 1001.9
20260905123524 63 301 2.0 11.0 0.00 0.09 0.06 43 1002.0
20260905123003 63 300 2.0 10.0 0.00 0.09 0.06 54 1001.8
20260905122503 63 284 1.0 10.0 0.00 0.09 0.06 57 1001.8
20260905122003 63 279 1.0 7.0 0.00 0.09 0.06 57 1002.0
20260905121503 63 283 1.0 7.0 0.00 0.09 0.06 52 1001.9
20260905121003 63 278 1.0 9.0 0.00 0.09 0.06 53 1001.7
20260905120524 62 289 2.0 9.0 0.00 0.09 0.06 53 1001.7
20260905120003 63 296 2.0 11.0 0.00 0.09 0.06 56 1001.7
20260905115503 63 293 2.0 11.0 0.00 0.09 0.06 57 1002.0
20260905115003 63 294 1.0 9.0 0.00 0.09 0.06 55 1001.8
20260905114523 63 292 1.0 7.0 0.00 0.09 0.06 56 1001.7
20260905114003 64 287 1.0 9.0 0.00 0.09 0.06 58 1001.6
20260905113503 64 259 1.0 9.0 0.00 0.09 0.06 59 1001.5
20260905113002 65 243 1.0 5.0 0.00 0.09 0.06 56 1001.6
20260905112503 64 270 1.0 10.0 0.00 0.09 0.06 55 1001.5
20260905112003 64 299 1.0 10.0 0.00 0.09 0.06 57 1001.6
20260905111503 64 312 1.0 10.0 0.00 0.09 0.06 56 1001.5
20260905111003 64 258 1.0 10.0 0.00 0.09 0.06 57 1001.5
20260905110503 64 287 1.0 8.0 0.00 0.09 0.06 59 1001.5
20260905110003 63 293 2.0 9.0 0.00 0.09 0.06 53 1001.5
20260905105503 63 277 2.0 9.0 0.00 0.09 0.06 54 1001.4
20260905105024 63 299 1.0 9.0 0.00 0.09 0.06 52 1001.4
20260905104503 63 284 1.0 10.0 0.00 0.09 0.06 53 1001.4
20260905104003 62 280 1.0 10.0 0.00 0.09 0.06 43 1001.3
20260905103503 62 295 1.0 7.0 0.00 0.09 0.06 51 1001.3
20260905103003 62 294 1.0 5.0 0.00 0.09 0.06 52 1001.3
20260905102503 63 298 1.0 11.0 0.00 0.09 0.06 51 1001.2
20260905102003 63 300 1.0 11.0 0.00 0.09 0.06 54 1001.3
20260905101524 63 304 1.0 8.0 0.00 0.09 0.06 54 1001.2
20260905101024 63 300 1.0 8.0 0.00 0.09 0.06 52 1001.1
20260905100503 62 250 1.0 5.0 0.00 0.09 0.06 52 1001.0
20260905100003 63 288 2.0 7.0 0.00 0.09 0.06 55 1000.9
20260905095503 63 308 2.0 8.0 0.00 0.09 0.06 52 1000.9
20260905095003 64 311 1.0 8.0 0.00 0.09 0.06 57 1000.9
20260905094502 64 308 2.0 9.0 0.00 0.09 0.06 53 1000.8
20260905094003 63 287 2.0 9.0 0.00 0.09 0.06 55 1000.8
20260905093503 64 256 1.0 8.0 0.00 0.09 0.06 52 1000.9
20260905093023 63 283 1.0 8.0 0.00 0.09 0.06 49 1000.8
20260905092503 63 286 1.0 8.0 0.00 0.09 0.06 53 1000.8
20260905092003 63 310 0.0 5.0 0.00 0.09 0.06 42 1000.7
20260905091503 62 315 0.0 5.0 0.01 0.09 0.06 43 1000.8
20260905091003 62 275 1.0 5.0 0.01 0.09 0.06 43 1000.6
20260905090524 61 285 1.0 10.0 0.01 0.09 0.06 42 1000.5
20260905090003 61 301 2.0 10.0 0.01 0.09 0.06 47 1000.6
20260905085503 61 306 2.0 9.0 0.01 0.09 0.06 48 1000.6
20260905085003 62 294 1.0 10.0 0.01 0.09 0.06 52 1000.5
20260905084503 62 293 1.0 10.0 0.01 0.09 0.06 48 1000.4
20260905084002 63 316 1.0 6.0 0.01 0.09 0.06 48 1000.3
20260905083524 63 305 1.0 6.0 0.01 0.09 0.06 51 1000.2
20260905083003 63 270 1.0 4.0 0.01 0.09 0.06 50 1000.3
20260905082503 62 303 0.0 8.0 0.01 0.09 0.06 40 1000.2
20260905082002 62 309 1.0 9.0 0.01 0.09 0.06 39 1000.1
20260905081503 61 313 1.0 9.0 0.00 0.09 0.05 40 1000.2
20260905081003 61 316 1.0 8.0 0.00 0.09 0.05 32 1000.3
20260905080524 60 313 1.0 8.0 0.00 0.09 0.05 33 1000.2
20260905080003 60 312 0.0 3.0 0.00 0.09 0.05 22 1000.1
20260905075503 59 320 0.0 5.0 0.00 0.09 0.05 28 1000.1
20260905075003 59 311 1.0 7.0 0.00 0.09 0.05 31 1000.1
20260905074503 60 314 1.0 8.0 0.00 0.09 0.05 36 999.9
20260905074003 60 312 1.0 8.0 0.00 0.09 0.05 41 1000.0
20260905073503 60 305 1.0 8.0 0.00 0.09 0.05 32 999.9
20260905073003 59 315 1.0 5.0 0.00 0.09 0.05 25 999.9
20260905072503 59 315 1.0 10.0 0.00 0.09 0.05 23 999.8
20260905072003 59 306 1.0 10.0 0.00 0.09 0.05 19 999.8
20260905071503 58 308 1.0 10.0 0.00 0.09 0.05 16 999.7
20260905071003 58 291 1.0 10.0 0.00 0.09 0.05 4 999.7
20260905070503 57 295 1.0 10.0 0.00 0.09 0.05 5 999.7
20260905070003 57 301 1.0 4.0 0.00 0.09 0.05 1 999.6
20260905065503 56 306 1.0 4.0 0.00 0.09 0.05 1 999.5
20260905065003 56 307 1.0 4.0 0.00 0.09 0.05 1 999.5
20260905064503 56 316 1.0 7.0 0.00 0.09 0.05 1 999.4
20260905064002 56 315 1.0 7.0 0.00 0.09 0.05 1 999.4
20260905063502 56 316 1.0 6.0 0.00 0.09 0.05 1 999.4
20260905063024 56 319 2.0 8.0 0.00 0.09 0.05 1 999.3
20260905062503 55 308 1.0 8.0 0.00 0.09 0.05 1 999.2
20260905062003 55 303 1.0 7.0 0.00 0.09 0.05 1 999.2
20260905061524 55 309 1.0 6.0 0.00 0.09 0.05 1 999.2
20260905061003 55 310 1.0 6.0 0.00 0.09 0.05 1 999.1
20260905060503 55 309 0.0 4.0 0.00 0.09 0.05 1 999.1
20260905060024 55 320 0.0 4.0 0.00 0.09 0.05 1 999.0
20260905055503 55 319 0.0 4.0 0.00 0.09 0.05 1 998.9
20260905055003 55 168 0.0 3.0 0.00 0.09 0.05 1 998.8
20260905054503 54 0 0.0 3.0 0.00 0.09 0.05 1 998.8
20260905054002 54 0 0.0 3.0 0.00 0.09 0.05 1 998.7
20260905053502 54 0 0.0 3.0 0.00 0.09 0.05 1 998.6
20260905053003 54 0 0.0 3.0 0.00 0.09 0.05 1 998.6
20260905052503 54 0 0.0 3.0 0.00 0.09 0.05 1 998.6
20260905052003 54 0 0.0 3.0 0.00 0.09 0.05 1 998.5
20260905051503 54 0 0.0 3.0 0.00 0.09 0.05 1 998.5
20260905051003 54 0 0.0 3.0 0.00 0.09 0.05 1 998.4
20260905050503 54 0 0.0 3.0 0.00 0.09 0.05 1 998.4
20260905050003 54 0 0.0 3.0 0.00 0.09 0.05 1 998.4
20260905045503 54 0 0.0 3.0 0.00 0.09 0.05 1 998.3
20260905045003 54 0 0.0 3.0 0.00 0.09 0.05 1 998.3
20260905044503 54 0 0.0 3.0 0.00 0.09 0.05 1 998.4
20260905044003 54 0 0.0 3.0 0.00 0.09 0.05 1 998.3
20260905043503 54 0 0.0 3.0 0.00 0.09 0.05 1 998.2
20260905043003 54 0 0.0 3.0 0.00 0.09 0.05 1 998.2
20260905042524 54 0 0.0 3.0 0.00 0.09 0.05 1 998.2
20260905042003 54 0 0.0 3.0 0.00 0.09 0.05 1 998.2
20260905041503 54 316 0.0 3.0 0.00 0.09 0.05 1 998.2
20260905041003 54 327 0.0 3.0 0.00 0.09 0.05 1 998.2
20260905040503 54 341 0.0 2.0 0.00 0.09 0.05 1 998.2
20260905040003 54 84 0.0 1.0 0.00 0.09 0.05 1 998.2
20260905035503 54 296 0.0 1.0 0.00 0.09 0.05 1 998.2
20260905035003 54 321 0.0 3.0 0.00 0.09 0.05 1 998.2
20260905034503 54 320 0.0 4.0 0.00 0.09 0.05 1 998.1
20260905034024 54 316 0.0 4.0 0.00 0.09 0.05 1 998.2
20260905033503 54 309 0.0 2.0 0.00 0.09 0.05 1 998.1
20260905033003 54 331 0.0 1.0 0.00 0.09 0.05 1 998.0
20260905032503 54 331 0.0 1.0 0.00 0.09 0.05 1 997.9
20260905032003 54 331 0.0 1.0 0.00 0.09 0.05 1 997.9
20260905031503 54 299 0.0 1.0 0.00 0.09 0.05 1 997.9
20260905031003 54 297 0.0 1.0 0.00 0.09 0.05 1 997.9
20260905030503 54 281 0.0 1.0 0.00 0.09 0.05 1 997.8
20260905030003 54 303 0.0 2.0 0.00 0.09 0.05 1 997.8
20260905025524 54 303 0.0 2.0 0.00 0.09 0.05 1 997.8
20260905025003 54 300 0.0 1.0 0.00 0.09 0.05 1 997.8
20260905024503 54 286 0.0 1.0 0.00 0.09 0.05 1 997.7
20260905024002 54 286 0.0 1.0 0.00 0.09 0.05 1 997.6
20260905023503 54 0 0.0 0.0 0.00 0.09 0.05 1 997.6
20260905023003 54 315 0.0 1.0 0.02 0.09 0.05 1 997.6
20260905022524 54 312 0.0 1.0 0.02 0.09 0.05 1 997.5
20260905022003 54 328 0.0 1.0 0.02 0.09 0.05 1 997.4
20260905021503 54 320 0.0 3.0 0.02 0.09 0.05 1 997.4
20260905021003 54 310 0.0 3.0 0.02 0.09 0.05 1 997.3
20260905020503 54 0 0.0 0.0 0.02 0.09 0.05 1 997.3
20260905020003 54 0 0.0 0.0 0.03 0.09 0.05 1 997.3
20260905015524 54 0 0.0 0.0 0.03 0.09 0.05 1 997.2
20260905015003 54 0 0.0 0.0 0.03 0.09 0.05 1 997.2
20260905014503 54 0 0.0 0.0 0.03 0.09 0.05 1 997.2
20260905014003 54 146 0.0 1.0 0.03 0.09 0.05 1 997.0
20260905013503 54 146 0.0 1.0 0.03 0.09 0.05 1 997.0
20260905013002 54 0 0.0 0.0 0.02 0.07 0.03 1 997.1
20260905012503 53 0 0.0 0.0 0.02 0.07 0.03 1 997.0
20260905012003 53 311 0.0 2.0 0.02 0.07 0.03 1 996.9
20260905011503 53 323 0.0 2.0 0.02 0.07 0.03 1 996.9
20260905011003 53 359 0.0 1.0 0.02 0.07 0.03 1 996.8
20260905010503 53 288 0.0 1.0 0.02 0.06 0.02 1 996.8
20260905010003 53 288 0.0 1.0 0.01 0.06 0.02 1 996.9
20260905005503 53 0 0.0 0.0 0.01 0.06 0.02 1 996.9
20260905005003 53 242 0.0 1.0 0.01 0.06 0.02 1 997.0
20260905004524 53 242 0.0 1.0 0.01 0.06 0.02 1 997.0
20260905004003 54 290 0.0 1.0 0.01 0.06 0.02 1 997.1
20260905003503 54 272 0.0 1.0 0.02 0.06 0.02 1 996.9
20260905003002 54 207 0.0 1.0 0.01 0.05 0.01 1 997.0
20260905002503 54 323 0.0 1.0 0.01 0.05 0.01 1 997.0
20260905002003 54 321 0.0 1.0 0.01 0.05 0.01 1 996.9
20260905001524 54 315 0.0 1.0 0.01 0.05 0.01 1 996.9
20260905001003 54 316 0.0 1.0 0.01 0.05 0.01 1 996.9
20260905000524 54 0 0.0 0.0 0.01 0.05 0.01 1 996.9
20260905000003 54 0 0.0 0.0 0.01 0.05 0.01 1 996.8
20260904235503 54 0 0.0 0.0 0.01 0.05 0.01 1 996.7
20260904235024 54 0 0.0 0.0 0.01 0.05 0.01 1 996.7
20260904234503 54 0 0.0 0.0 0.01 0.05 0.01 1 996.6
20260904234003 54 0 0.0 0.0 0.01 0.05 0.01 1 996.6
20260904233502 54 0 0.0 0.0 0.00 0.04 0.00 1 996.5
20260904233003 54 0 0.0 0.0 0.00 0.04 0.00 1 996.5